[Date Prev][Date Next][Thread Prev][Thread Next] - [Date Index][Thread Index][Author Index]
2 Line ISS Keps 12-16
- Subject: [sarex] 2 Line ISS Keps 12-16
- From: "Dave Larsen PhD" <doc@xxxxxxxxxxx>
- Date: Fri, 16 Dec 2005 04:03:28 -0800
ISS
1 25544U 98067A 05350.34913819 .00012178 00000-0 91105-4 0 9552
2 25544 051.6454 047.2912 0010560 046.6913 050.3779 15.73102600404355
----
Via the sarex mailing list at AMSAT.ORG courtesy of AMSAT-NA.
To unsubscribe, send "unsubscribe sarex" to Majordomo@amsat.org
AMSAT Home